FW9692 Weather Reports


Display with metric or nautical units.
time (UTC)temp
F
wind
direction
speed
MPH
gust
MPH
rain 1hr
in
rain 24hr
in
rain mn
in
humidity
%
barometer
mb
20260507003006 81 311 14.0 18.0 0.00 0.00 0.00 16 998.7
20260507001519 81 292 22.0 28.0 0.00 0.00 0.00 15 998.8
20260506234511 82 268 13.0 25.0 0.00 0.00 0.00 15 998.7
20260506233012 82 290 16.0 23.0 0.00 0.00 0.00 16 998.7
20260506231510 81 259 15.0 25.0 0.00 0.00 0.00 16 998.7
20260506230009 81 310 23.0 30.0 0.00 0.00 0.00 15 998.7
20260506224604 81 289 21.0 30.0 0.00 0.00 0.00 15 998.8
20260506224501 81 290 23.0 30.0 0.00 0.00 0.00 15 998.7
20260506223103 81 273 17.0 32.0 0.00 0.00 0.00 15 998.8
20260506221617 81 275 18.0 31.0 0.00 0.00 0.00 14 998.8
20260506220100 81 284 18.0 28.0 0.00 0.00 0.00 15 998.8
20260506214512 81 288 20.0 32.0 0.00 0.00 0.00 15 998.9
20260506213016 81 257 21.0 28.0 0.00 0.00 0.00 15 999.0
20260506211509 81 279 15.0 22.0 0.00 0.00 0.00 15 999.1
20260506210009 80 286 17.0 34.0 0.00 0.00 0.00 16 999.2
20260506204505 80 304 23.0 32.0 0.00 0.00 0.00 16 999.4
20260506203008 79 272 24.0 29.0 0.00 0.00 0.00 17 999.5
20260506201504 80 309 23.0 30.0 0.00 0.00 0.00 18 999.6
20260506200003 79 277 19.0 34.0 0.00 0.00 0.00 18 999.8
20260506194601 80 306 23.0 36.0 0.00 0.00 0.00 18 999.8
20260506193105 79 286 26.0 35.0 0.00 0.00 0.00 18 999.9
20260506191556 78 284 17.0 32.0 0.00 0.00 0.00 19 1000.3
20260506190056 77 296 15.0 35.0 0.00 0.00 0.00 20 1000.5
20260506184504 77 293 29.0 35.0 0.00 0.00 0.00 20 1000.9
20260506183109 77 305 17.0 33.0 0.00 0.00 0.00 23 1001.0
20260506181604 77 275 26.0 34.0 0.00 0.00 0.00 21 1000.9
20260506180059 75 279 11.0 16.0 0.00 0.00 0.00 24 1001.3
20260506174543 75 250 3.0 8.0 0.00 0.00 0.00 29 1001.7
20260506173045 74 182 8.0 12.0 0.00 0.00 0.00 29 1001.7
20260506171539 73 26 1.0 6.0 0.00 0.00 0.00 30 1001.9
20260506170044 72 185 1.0 13.0 0.00 0.00 0.00 30 1001.8
20260506164555 71 33 9.0 13.0 0.00 0.00 0.00 33 1001.8
20260506163042 70 346 10.0 15.0 0.00 0.00 0.00 33 1001.8
20260506161537 70 323 8.0 14.0 0.00 0.00 0.00 34 1001.7
20260506160037 70 42 5.0 11.0 0.00 0.00 0.00 34 1001.8
20260506154542 69 27 7.0 13.0 0.00 0.00 0.00 34 1001.8
20260506153035 69 341 11.0 14.0 0.00 0.00 0.00 33 1001.8
20260506151537 69 16 11.0 18.0 0.00 0.00 0.00 32 1001.6
20260506150033 70 18 11.0 16.0 0.00 0.00 0.00 29 1001.4
20260506144536 69 346 12.0 16.0 0.00 0.00 0.00 29 1001.3
20260506143039 69 336 5.0 10.0 0.00 0.00 0.00 30 1001.4
20260506141541 68 310 7.0 12.0 0.00 0.00 0.00 32 1001.4
20260506140036 67 269 9.0 12.0 0.00 0.00 0.00 31 1001.2
20260506134524 67 265 9.0 12.0 0.00 0.00 0.00 34 1001.2
20260506133021 67 266 11.0 14.0 0.00 0.00 0.00 30 1000.9
20260506131520 67 269 11.0 14.0 0.00 0.00 0.00 30 1000.8
20260506130018 68 287 8.0 10.0 0.00 0.00 0.00 28 1000.6
20260506124508 68 281 8.0 11.0 0.00 0.00 0.00 28 1000.5
20260506123007 68 268 9.0 12.0 0.00 0.00 0.00 29 1000.3
20260506121506 67 279 10.0 13.0 0.00 0.00 0.00 30 999.8
20260506120004 67 279 10.0 14.0 0.00 0.00 0.00 30 999.4
20260506114503 68 270 11.0 16.0 0.00 0.00 0.00 29 999.3
20260506113002 68 267 13.0 15.0 0.00 0.00 0.00 29 999.2
20260506111559 68 269 11.0 13.0 0.00 0.00 0.00 28 999.1
20260506110113 68 268 11.0 13.0 0.00 0.00 0.00 28 999.1
20260506104526 68 257 8.0 11.0 0.00 0.00 0.00 28 999.0
20260506103033 69 275 10.0 13.0 0.00 0.00 0.00 27 998.7
20260506101509 69 277 15.0 21.0 0.00 0.00 0.00 26 998.5
20260506100006 70 279 18.0 23.0 0.00 0.00 0.00 25 998.2
20260506094603 70 277 18.0 23.0 0.00 0.00 0.00 25 998.2
20260506093054 70 280 16.0 20.0 0.00 0.00 0.00 27 998.0
20260506091551 0 0.0 0.0 0.00 0.00 0.00 998.1
20260506090046 0 0.0 0.0 0.00 0.00 0.00 997.9
20260506084611 0 0.0 0.0 0.00 0.00 0.00 997.8
20260506083038 0 0.0 0.0 0.00 0.00 0.00 997.9
20260506081539 0 0.0 0.0 0.00 0.00 0.00 997.9
20260506073020 0 0.0 0.0 0.00 0.00 0.00 997.9
20260506071511 0 0.0 0.0 0.00 0.00 0.00 997.8
20260506061516 70 244 8.0 11.0 0.00 0.00 0.00 42 997.6
20260506044508 74 270 4.0 8.0 0.00 0.00 0.00 36 997.1
20260506043008 73 225 3.0 5.0 0.00 0.00 0.00 37 996.9
20260506041507 73 229 3.0 7.0 0.00 0.00 0.00 36 996.7
20260506040006 74 284 7.0 9.0 0.00 0.00 0.00 35 996.6
20260506034504 74 286 6.0 8.0 0.00 0.00 0.00 35 996.6
20260506033004 74 294 4.0 9.0 0.00 0.00 0.00 35 996.2
20260506031505 74 307 7.0 12.0 0.00 0.00 0.00 35 996.0
20260506030001 74 312 12.0 16.0 0.00 0.00 0.00 34 995.8
20260506024605 75 309 12.0 16.0 0.00 0.00 0.00 33 995.6
20260506023109 76 319 12.0 15.0 0.00 0.00 0.00 32 995.5
20260506021617 77 329 9.0 12.0 0.00 0.00 0.00 30 995.5
20260506020057 78 319 3.0 6.0 0.00 0.00 0.00 28 995.4
20260506014504 79 324 4.0 9.0 0.00 0.00 0.00 27 995.2
20260506013003 80 334 2.0 4.0 0.00 0.00 0.00 26 995.1
20260506011503 80 195 3.0 9.0 0.00 0.00 0.00 25 994.8
20260506010003 80 186 7.0 8.0 0.00 0.00 0.00 26 994.8
20260506004553 80 182 9.0 10.0 0.00 0.00 0.00 25 994.9